Home   Weather   Kawasaki   Past weeks

Flag for Japan Past Weather in Kawasaki, Japan — Yesterday and Last 2 Weeks

Now
75 °F

Scattered clouds.


Feels Like: 77 °F
Forecast: 69 / 81 °F
Wind: 17 mph from South

Location: Tokyo International Airport

Current Time: May 29, 2017 at 1:03:11 pm

Latest Report: May 29, 2017 at 12:00 pm


Visibility: N/A

Pressure: 29.92 "Hg

Humidity: 61%

Dew Point: 61 °F

Location of KawasakiLocation

Past Weather in Kawasaki — Graph

°F

Kawasaki Temperature Yesterday

Maximum temperature yesterday: 77 °F (at 3:30 pm)
Minimum temperature yesterday: 64 °F (at 12:00 am)
Average temperature yesterday: 70 °F

High & Low Weather Summary for the Past Weeks

 TemperatureHumidityPressure
High84 °F (May 21, 1:00 pm)100% (May 16, 3:15 am)30.04 "Hg (May 16, 3:15 am)
Low61 °F (May 14, 9:00 pm)43% (May 21, 1:00 pm)29.59 "Hg (May 26, 11:30 am)
Average69 °F78%29.85 "Hg
* Reported May 14 12:00 pm — May 29 12:00 pm, Kawasaki. Weather by CustomWeather, © 2017

Note: Actual official high and low records may vary slightly from our data, if they occured in-between our weather recording intervals... More about our weather records

Advertising

Kawasaki Weather History for the Previous 24 Hours

Scroll right to see more
 ConditionsComfort  
Time TempWeatherWind HumidityBarometerVisibility
12:00 pm
Mon, May 29
75 °FScattered clouds.17 mph61%29.92 "HgN/A
11:30 am75 °FScattered clouds.16 mph61%29.92 "HgN/A
11:00 am75 °FScattered clouds.18 mph61%29.92 "HgN/A
10:30 am73 °FPartly sunny.15 mph65%29.95 "HgN/A
9:30 am73 °FPartly sunny.10 mph65%29.95 "HgN/A
9:00 am72 °FPartly sunny.9 mph73%29.95 "HgN/A
8:30 am72 °FPartly sunny.7 mph73%29.95 "HgN/A
7:30 am70 °FPartly sunny.3 mph73%29.95 "HgN/A
6:30 am66 °FPartly sunny.5 mph78%29.95 "HgN/A
6:00 am66 °FPartly sunny.7 mph78%29.95 "HgN/A
5:30 am66 °FPartly sunny.7 mph83%29.92 "HgN/A
4:30 am66 °FPartly sunny.5 mph88%29.92 "Hg6 mi
4:00 am66 °FPassing clouds.3 mph88%29.92 "HgN/A
3:30 am66 °FPassing clouds.3 mph88%29.92 "HgN/A
3:00 am66 °FPassing clouds.3 mph88%29.89 "HgN/A
2:30 am66 °FPassing clouds.3 mph88%29.89 "HgN/A
1:30 am64 °FPassing clouds.5 mph94%29.89 "HgN/A
1:00 am66 °FPassing clouds.6 mph88%29.89 "HgN/A
12:30 am66 °FPassing clouds.7 mph88%29.89 "HgN/A
12:00 am66 °FPassing clouds.8 mph88%29.89 "HgN/A
11:30 pm
Sun, May 28
66 °FPassing clouds.10 mph88%29.89 "HgN/A
11:00 pm66 °FPassing clouds.10 mph88%29.89 "HgN/A
10:30 pm68 °FPassing clouds.10 mph83%29.89 "HgN/A
10:00 pm68 °FPartly cloudy.10 mph83%29.89 "HgN/A
9:30 pm70 °FPassing clouds.12 mph73%29.92 "HgN/A
9:00 pm70 °FPartly cloudy.10 mph78%29.89 "HgN/A
8:30 pm70 °FPartly cloudy.14 mph78%29.89 "HgN/A
8:00 pm70 °FPassing clouds.14 mph73%29.86 "HgN/A
7:30 pm70 °FPassing clouds.15 mph73%29.86 "HgN/A
7:00 pm70 °FPassing clouds.14 mph73%29.86 "HgN/A
6:30 pm70 °FPartly sunny.14 mph73%29.86 "HgN/A
6:00 pm72 °FScattered clouds.16 mph69%29.83 "HgN/A
5:30 pm73 °FScattered clouds.16 mph65%29.83 "HgN/A
5:10 pm73 °FPassing clouds.17 mph65%29.83 "HgN/A
4:45 pm73 °FPassing clouds.18 mph65%29.80 "HgN/A
4:30 pm73 °FPassing clouds.21 mph65%29.80 "HgN/A
4:00 pm77 °FPassing clouds.16 mph57%29.80 "HgN/A
3:30 pm77 °FPassing clouds.14 mph51%29.80 "HgN/A
3:00 pm75 °FPassing clouds.9 mph50%29.80 "HgN/A
2:30 pm75 °FScattered clouds.7 mph54%29.83 "HgN/A
2:00 pm75 °FPassing clouds.9 mph57%29.83 "HgN/A
1:30 pm75 °FPassing clouds.9 mph57%29.83 "HgN/A
1:00 pm73 °FPassing clouds.8 mph61%29.83 "HgN/A
Weather by CustomWeather, © 2017

See weather overviewHow to use our weather pages